Grand Junction, CO

2:21 PM MDT on April 20, 2018 (GMT -0600)
Walker

Weather History for KGJT - April, 2014

Change the Weather History Date:

Sunday, April 6, 2014

  Actual Average Record
Temperature  
Mean Temperature 46 °F 49 °F  
Max Temperature 56 °F 62 °F 80 °F (1959)
Min Temperature 36 °F 35 °F 19 °F (1909)
Degree Days  
Heating Degree Days 19 16  
Month to date heating degree days 121 100  
Since 1 July heating degree days 5711 5132  
Cooling Degree Days 0 0  
Month to date cooling degree days 0 0  
Year to date cooling degree days 0 0  
Moisture  
Dew Point 29 °F    
Average Humidity 53    
Maximum Humidity 79    
Minimum Humidity 26    
Precipitation  
Precipitation T in 0.03 in 0.83 in (1993)
Month to date precipitation 0.26 0.19  
Year to date precipitation 1.74 2.23  
Snow  
Snow 0.00 in 0.00 in 1.80 in (1921)
Month to date snowfall T 0.3  
Since 1 July snowfall 25.7 18.4  
Snow Depth 0.00 in    
Sea Level Pressure  
Sea Level Pressure 29.96 in    
Wind  
Wind Speed 5 mph (NW)    
Max Wind Speed 24 mph    
Max Gust Speed 28 mph    
Visibility 10 miles    
Events Rain    
T = Trace of Precipitation, MM = Missing Value Source: NWS Daily Summary

Daily Weather History Graph

Daily Weather History Graph

Search for Another Location

Airport or City:

Astronomy

Apr. 06, 2014 Rise Set
Actual Time 6:50 AM MDT 7:42 PM MDT
Civil Twilight 6:23 AM MDT 8:10 PM MDT
Nautical Twilight 5:51 AM MDT 8:42 PM MDT
Astronomical Twilight 5:18 AM MDT 9:15 PM MDT
Moon 11:55 AM MDT (4/6) 1:39 AM MDT (4/6)
Length of Visible Light 13h 46m
Length of Day
12h 52m
Waxing Crescent, 44% of the Moon is Illuminated
Apr 6
Waxing Crescent
Apr 7
First Quarter
Apr 15
Full
Apr 22
Last Quarter
Apr 29
New

Hourly Weather History & Observations

Time (MDT) Temp. Windchill Dew Point Humidity Pressure Visibility Wind Dir Wind Speed Gust Speed Precip Events Conditions
12:53 AM 39.9 °F - 28.9 °F 65% 29.89 in 10.0 mi Calm Calm - N/A   Clear
1:53 AM 37.9 °F - 28.9 °F 70% 29.89 in 10.0 mi Calm Calm - N/A   Clear
2:53 AM 37.9 °F - 30.0 °F 73% 29.89 in 10.0 mi Calm Calm - N/A   Overcast
3:53 AM 41.0 °F 37.1 °F 30.0 °F 65% 29.91 in 10.0 mi NW 5.8 mph - N/A   Overcast
4:53 AM 45.0 °F 43.5 °F 27.0 °F 49% 29.90 in 10.0 mi Variable 3.5 mph - 0.00 in Rain Light Rain
5:53 AM 37.0 °F 33.3 °F 28.9 °F 73% 29.93 in 10.0 mi NE 4.6 mph - 0.00 in   Overcast
6:53 AM 37.4 °F - 30.2 °F 75% 30.00 in 10.0 mi Calm Calm - N/A   Overcast
7:53 AM 41.0 °F - 33.1 °F 73% 29.97 in 10.0 mi Calm Calm - N/A   Overcast
8:53 AM 43.0 °F 39.5 °F 28.0 °F 56% 29.98 in 10.0 mi ENE 5.8 mph - 0.00 in   Overcast
9:53 AM 45.0 °F 43.5 °F 27.0 °F 49% 29.98 in 10.0 mi Variable 3.5 mph - N/A   Overcast
10:53 AM 44.1 °F - 30.0 °F 58% 30.00 in 10.0 mi Calm Calm - 0.00 in   Overcast
11:53 AM 48.0 °F - 28.0 °F 46% 29.99 in 10.0 mi SSW 4.6 mph - N/A   Partly Cloudy
12:53 PM 39.9 °F 33.4 °F 34.0 °F 79% 30.04 in 6.0 mi East 10.4 mph - 0.00 in Rain Light Rain
1:53 PM 46.9 °F - 32.0 °F 56% 29.97 in 10.0 mi ESE 6.9 mph - 0.00 in Rain Light Rain
2:53 PM 53.1 °F - 28.0 °F 38% 29.94 in 10.0 mi NW 6.9 mph - 0.00 in   Scattered Clouds
3:53 PM 53.1 °F - 27.0 °F 37% 29.91 in 10.0 mi SW 8.1 mph - N/A   Partly Cloudy
4:53 PM 55.0 °F - 21.0 °F 27% 29.88 in 10.0 mi WNW 9.2 mph - N/A   Partly Cloudy
5:53 PM 53.1 °F - 19.0 °F 26% 29.90 in 10.0 mi NW 5.8 mph - N/A   Mostly Cloudy
6:53 PM 52.0 °F - 21.0 °F 30% 29.92 in 10.0 mi West 11.5 mph - N/A   Overcast
7:53 PM 46.9 °F - 33.1 °F 59% 29.96 in 10.0 mi WNW 17.3 mph 27.6 mph 0.00 in Rain Light Rain
8:53 PM 45.0 °F - 32.0 °F 60% 30.01 in 10.0 mi Calm Calm - 0.00 in   Overcast
9:53 PM 43.0 °F 37.7 °F 33.1 °F 68% 30.03 in 10.0 mi ESE 9.2 mph - 0.00 in   Overcast
10:53 PM 41.0 °F 39.0 °F 34.0 °F 76% 30.06 in 10.0 mi SSW 3.5 mph - N/A   Mostly Cloudy
11:53 PM 39.9 °F 37.8 °F 34.0 °F 79% 30.08 in - NNW 3.5 mph - N/A   Mostly Cloudy